Weather History for KHUT - December, 2012

Change the Weather History Date:

Tuesday, December 4, 2012

  Actual Average Record
Temperature  
Mean Temperature 44 °F -  
Max Temperature 62 °F 46 °F 71 °F (2001)
Min Temperature 27 °F 24 °F 14 °F (2005)
Degree Days  
Heating Degree Days 20    
Moisture  
Dew Point 22 °F    
Average Humidity 49    
Maximum Humidity 78    
Minimum Humidity 18    
Precipitation  
Precipitation 0.00 in - - ()
Sea Level Pressure  
Sea Level Pressure 30.27 in    
Wind  
Wind Speed 6 mph (NW)    
Max Wind Speed 12 mph    
Max Gust Speed -    
Visibility 10 miles    
Events      
Averages and records for this station are not official NWS values.
T = Trace of Precipitation, MM = Missing Value Source: NWS Daily Summary

Daily Weather History Graph

Daily Weather History Graph

Search for Another Location

Airport or City:

Trip Planner

Search our weather history database for the weather conditions in past years. The results will help you decide how hot, cold, wet, or windy it might be!

Date:

Astronomy

Dec. 04, 2012 Rise Set
Actual Time 7:32 AM CST 5:11 PM CST
Civil Twilight 7:02 AM CST 5:40 PM CST
Nautical Twilight 6:30 AM CST 6:13 PM CST
Astronomical Twilight 5:58 AM CST 6:45 PM CST
Moon 10:56 PM CST (12/4) 11:30 AM CST (12/4)
Length of Visible Light 10h 37m
Length of Day
9h 39m
Waning Gibbous, 69% of the Moon is Illuminated
Dec 4
Waning Gibbous
Dec 6
Last Quarter
Dec 13
New
Dec 19
First Quarter
Dec 28
Full

Hourly Weather History & Observations

Time (CST) Temp. Windchill Dew Point Humidity Pressure Visibility Wind Dir Wind Speed Gust Speed Precip Events Conditions
12:52 AM 46.9 °F - 30.9 °F 54% 30.12 in 10.0 mi North 8.1 mph - N/A   Clear
1:52 AM 45.0 °F 41.2 °F 28.9 °F 53% 30.13 in 10.0 mi North 6.9 mph - N/A   Clear
2:52 AM 39.9 °F 35.1 °F 26.1 °F 58% 30.17 in 10.0 mi North 6.9 mph - N/A   Clear
3:52 AM 39.9 °F 35.1 °F 23.0 °F 51% 30.18 in 10.0 mi North 6.9 mph - N/A   Clear
4:52 AM 35.1 °F - 21.9 °F 59% 30.21 in 10.0 mi Calm Calm - N/A   Clear
5:52 AM 30.0 °F 24.1 °F 23.0 °F 75% 30.25 in 10.0 mi WNW 5.8 mph - N/A   Clear
6:52 AM 28.9 °F 22.8 °F 21.9 °F 75% 30.27 in 10.0 mi NW 5.8 mph - N/A   Clear
7:52 AM 27.0 °F 20.5 °F 21.0 °F 78% 30.30 in 10.0 mi WNW 5.8 mph - N/A   Clear
8:52 AM 37.0 °F 31.6 °F 25.0 °F 62% 30.30 in 10.0 mi WNW 6.9 mph - N/A   Clear
9:52 AM 42.1 °F 37.1 °F 25.0 °F 51% 30.33 in 10.0 mi WNW 8.1 mph - N/A   Clear
10:52 AM 50.0 °F - 24.1 °F 36% 30.33 in 10.0 mi WNW 4.6 mph - N/A   Clear
11:52 AM 55.9 °F - 21.9 °F 27% 30.32 in 10.0 mi West 10.4 mph - N/A   Clear
12:52 PM 59.0 °F - 21.9 °F 24% 30.30 in 10.0 mi Variable 5.8 mph - N/A   Clear
1:52 PM 62.1 °F - 18.0 °F 18% 30.28 in 10.0 mi West 9.2 mph - N/A   Clear
2:52 PM 62.1 °F - 18.0 °F 18% 30.27 in 10.0 mi West 11.5 mph - N/A   Clear
3:52 PM 62.1 °F - 19.0 °F 19% 30.27 in 10.0 mi West 8.1 mph - N/A   Clear
4:52 PM 55.9 °F - 19.0 °F 24% 30.28 in 10.0 mi WNW 5.8 mph - N/A   Clear
5:52 PM 48.0 °F - 18.0 °F 30% 30.30 in 10.0 mi Calm Calm - N/A   Clear
6:52 PM 34.0 °F - 18.0 °F 52% 30.31 in 9.0 mi Calm Calm - N/A   Clear
7:52 PM 30.9 °F - 18.0 °F 59% 30.33 in 10.0 mi Calm Calm - N/A   Clear
8:52 PM 32.0 °F - 19.0 °F 59% 30.32 in 10.0 mi Calm Calm - N/A   Clear
9:52 PM 35.1 °F - 21.0 °F 57% 30.30 in 10.0 mi Calm Calm - N/A   Clear
10:52 PM 30.9 °F - 21.9 °F 69% 30.31 in 10.0 mi Calm Calm - N/A   Clear
11:52 PM 32.0 °F - 21.0 °F 64% 30.32 in 10.0 mi Calm Calm - N/A   Clear